| time (UTC) | temp C | wind direction | speed KPH | gust KPH | rain 1hr cm | rain 24hr cm | rain mn cm | humidity % | barometer mb |
| 20260906230241 | 36 | 88 | 1.6 | 1.6 | 0.00 | 0.00 | 0.00 | 38 | 1009.3 |
| 20260906225739 | 36 | 112 | 6.4 | 8.0 | 0.00 | 0.00 | 0.00 | 39 | 1009.6 |
| 20260906225236 | 36 | 184 | 4.8 | 4.8 | 0.00 | 0.00 | 0.00 | 39 | 1009.7 |
| 20260906224730 | 37 | 179 | 4.8 | 8.0 | 0.00 | 0.00 | 0.00 | 39 | 1009.5 |
| 20260906224227 | 36 | 87 | 1.6 | 3.2 | 0.00 | 0.00 | 0.00 | 39 | 1009.4 |
| 20260906223723 | 36 | 114 | 4.8 | 8.0 | 0.00 | 0.00 | 0.00 | 40 | 1009.4 |
| 20260906223219 | 37 | 88 | 1.6 | 1.6 | 0.00 | 0.00 | 0.00 | 38 | 1009.3 |
| 20260906222717 | 37 | 185 | 4.8 | 8.0 | 0.00 | 0.00 | 0.00 | 38 | 1009.5 |
| 20260906222215 | 37 | 185 | 4.8 | 8.0 | 0.00 | 0.00 | 0.00 | 38 | 1009.4 |
| 20260906221714 | 37 | 225 | 3.2 | 3.2 | 0.00 | 0.00 | 0.00 | 38 | 1009.5 |
| 20260906221209 | 37 | 112 | 4.8 | 4.8 | 0.00 | 0.00 | 0.00 | 39 | 1009.6 |
| 20260906220704 | 37 | 89 | 1.6 | 1.6 | 0.00 | 0.00 | 0.00 | 39 | 1009.6 |
| 20260906220159 | 37 | 96 | 1.6 | 3.2 | 0.00 | 0.00 | 0.00 | 39 | 1009.5 |
| 20260906215658 | 37 | 117 | 1.6 | 3.2 | 0.00 | 0.00 | 0.00 | 38 | 1009.6 |
| 20260906215156 | 37 | 86 | 0.0 | 1.6 | 0.00 | 0.00 | 0.00 | 39 | 1009.6 |
| 20260906214655 | 37 | 78 | 0.0 | 1.6 | 0.00 | 0.00 | 0.00 | 39 | 1009.8 |
| 20260906214150 | 36 | 153 | 3.2 | 3.2 | 0.00 | 0.00 | 0.00 | 39 | 1009.7 |
| 20260906213649 | 37 | 98 | 0.0 | 1.6 | 0.00 | 0.00 | 0.00 | 39 | 1009.9 |
| 20260906213144 | 37 | 90 | 3.2 | 4.8 | 0.00 | 0.00 | 0.00 | 38 | 1010.0 |
| 20260906212641 | 37 | 123 | 3.2 | 4.8 | 0.00 | 0.00 | 0.00 | 38 | 1009.9 |
| 20260906212137 | 36 | 125 | 4.8 | 8.0 | 0.00 | 0.00 | 0.00 | 39 | 1010.2 |
| 20260906211637 | 36 | 155 | 6.4 | 8.0 | 0.00 | 0.00 | 0.00 | 39 | 1010.3 |
| 20260906211132 | 37 | 87 | 1.6 | 3.2 | 0.00 | 0.00 | 0.00 | 38 | 1010.2 |
| 20260906210628 | 37 | 80 | 3.2 | 3.2 | 0.00 | 0.00 | 0.00 | 38 | 1010.2 |
| 20260906210122 | 37 | 119 | 4.8 | 4.8 | 0.00 | 0.00 | 0.00 | 38 | 1010.4 |
| 20260906205618 | 38 | 298 | 4.8 | 4.8 | 0.00 | 0.00 | 0.00 | 37 | 1010.5 |
| 20260906205114 | 38 | 317 | 3.2 | 3.2 | 0.00 | 0.00 | 0.00 | 37 | 1010.7 |
| 20260906204613 | 37 | 121 | 1.6 | 3.2 | 0.00 | 0.00 | 0.00 | 37 | 1010.5 |
| 20260906204108 | 37 | 125 | 3.2 | 4.8 | 0.00 | 0.00 | 0.00 | 37 | 1010.8 |
| 20260906203608 | 37 | 55 | 3.2 | 3.2 | 0.00 | 0.00 | 0.00 | 40 | 1010.7 |
| 20260906203103 | 37 | 267 | 3.2 | 4.8 | 0.00 | 0.00 | 0.00 | 39 | 1010.8 |
| 20260906202600 | 37 | 233 | 4.8 | 4.8 | 0.00 | 0.00 | 0.00 | 39 | 1010.7 |
| 20260906202059 | 37 | 345 | 4.8 | 4.8 | 0.00 | 0.00 | 0.00 | 40 | 1010.6 |
| 20260906201600 | 37 | 105 | 0.0 | 0.0 | 0.00 | 0.00 | 0.00 | 40 | 1010.7 |
| 20260906201059 | 37 | 55 | 4.8 | 4.8 | 0.00 | 0.00 | 0.00 | 40 | 1011.1 |
| 20260906200555 | 36 | 78 | 1.6 | 3.2 | 0.00 | 0.00 | 0.00 | 41 | 1010.9 |
| 20260906200051 | 36 | 108 | 3.2 | 4.8 | 0.00 | 0.00 | 0.00 | 42 | 1011.1 |
| 20260906195546 | 36 | 117 | 4.8 | 8.0 | 0.00 | 0.00 | 0.00 | 41 | 1010.9 |
| 20260906195043 | 36 | 351 | 4.8 | 4.8 | 0.00 | 0.00 | 0.00 | 42 | 1011.0 |
| 20260906194538 | 36 | 84 | 6.4 | 8.0 | 0.00 | 0.00 | 0.00 | 42 | 1011.2 |
| 20260906194034 | 37 | 116 | 3.2 | 3.2 | 0.00 | 0.00 | 0.00 | 40 | 1011.0 |
| 20260906193533 | 36 | 143 | 1.6 | 1.6 | 0.00 | 0.00 | 0.00 | 42 | 1011.1 |
| 20260906193029 | 36 | 88 | 1.6 | 1.6 | 0.00 | 0.00 | 0.00 | 42 | 1011.1 |
| 20260906192524 | 37 | 95 | 3.2 | 3.2 | 0.00 | 0.00 | 0.00 | 41 | 1011.4 |
| 20260906192023 | 36 | 90 | 0.0 | 0.0 | 0.00 | 0.00 | 0.00 | 43 | 1011.3 |
| 20260906191519 | 36 | 90 | 4.8 | 8.0 | 0.00 | 0.00 | 0.00 | 43 | 1011.4 |
| 20260906191017 | 36 | 150 | 4.8 | 4.8 | 0.00 | 0.00 | 0.00 | 42 | 1011.7 |
| 20260906190517 | 35 | 117 | 3.2 | 4.8 | 0.00 | 0.00 | 0.00 | 45 | 1011.3 |
| 20260906190012 | 36 | 84 | 4.8 | 4.8 | 0.00 | 0.00 | 0.00 | 44 | 1011.7 |
| 20260906185511 | 35 | 112 | 3.2 | 4.8 | 0.00 | 0.00 | 0.00 | 44 | 1011.8 |
| 20260906185010 | 36 | 136 | 8.0 | 11.3 | 0.00 | 0.00 | 0.00 | 44 | 1011.7 |
| 20260906184505 | 36 | 70 | 3.2 | 4.8 | 0.00 | 0.00 | 0.00 | 45 | 1011.8 |
| 20260906184001 | 36 | 149 | 1.6 | 3.2 | 0.00 | 0.00 | 0.00 | 43 | 1012.1 |
| 20260906183456 | 36 | 57 | 3.2 | 4.8 | 0.00 | 0.00 | 0.00 | 43 | 1012.0 |
| 20260906182952 | 36 | 80 | 1.6 | 3.2 | 0.00 | 0.00 | 0.00 | 43 | 1011.9 |
| 20260906182447 | 36 | 289 | 4.8 | 4.8 | 0.00 | 0.00 | 0.00 | 44 | 1011.9 |
| 20260906181943 | 36 | 325 | 4.8 | 4.8 | 0.00 | 0.00 | 0.00 | 43 | 1012.1 |
| 20260906181439 | 36 | 62 | 1.6 | 1.6 | 0.00 | 0.00 | 0.00 | 44 | 1012.1 |
| 20260906180934 | 36 | 78 | 4.8 | 9.7 | 0.00 | 0.00 | 0.00 | 45 | 1012.3 |
| 20260906180429 | 35 | 137 | 4.8 | 8.0 | 0.00 | 0.00 | 0.00 | 45 | 1012.2 |
| 20260906175926 | 35 | 82 | 3.2 | 4.8 | 0.00 | 0.00 | 0.00 | 46 | 1012.2 |
| 20260906175422 | 36 | 112 | 4.8 | 8.0 | 0.00 | 0.00 | 0.00 | 45 | 1012.7 |
| 20260906174920 | 35 | 82 | 0.0 | 1.6 | 0.00 | 0.00 | 0.00 | 45 | 1012.8 |
| 20260906174420 | 35 | 79 | 3.2 | 3.2 | 0.00 | 0.00 | 0.00 | 45 | 1012.7 |
| 20260906173915 | 35 | 99 | 4.8 | 8.0 | 0.00 | 0.00 | 0.00 | 46 | 1012.9 |
| 20260906173410 | 35 | 196 | 8.0 | 11.3 | 0.00 | 0.00 | 0.00 | 45 | 1013.0 |
| 20260906172909 | 35 | 8 | 8.0 | 9.7 | 0.00 | 0.00 | 0.00 | 45 | 1012.7 |
| 20260906172406 | 35 | 161 | 1.6 | 1.6 | 0.00 | 0.00 | 0.00 | 46 | 1013.0 |
| 20260906171901 | 35 | 246 | 4.8 | 8.0 | 0.00 | 0.00 | 0.00 | 46 | 1013.2 |
| 20260906171355 | 35 | 193 | 4.8 | 4.8 | 0.00 | 0.00 | 0.00 | 46 | 1013.0 |
| 20260906170851 | 35 | 219 | 1.6 | 1.6 | 0.00 | 0.00 | 0.00 | 48 | 1013.0 |
| 20260906170347 | 35 | 56 | 4.8 | 4.8 | 0.00 | 0.00 | 0.00 | 47 | 1013.3 |
| 20260906165843 | 35 | 146 | 4.8 | 4.8 | 0.00 | 0.00 | 0.00 | 48 | 1013.2 |
| 20260906165342 | 34 | 298 | 3.2 | 3.2 | 0.00 | 0.00 | 0.00 | 49 | 1013.3 |
| 20260906164837 | 35 | 25 | 3.2 | 3.2 | 0.00 | 0.00 | 0.00 | 48 | 1013.4 |
| 20260906164336 | 34 | 88 | 0.0 | 1.6 | 0.00 | 0.00 | 0.00 | 49 | 1013.6 |
| 20260906163833 | 34 | 205 | 4.8 | 4.8 | 0.00 | 0.00 | 0.00 | 49 | 1013.4 |
| 20260906163329 | 34 | 183 | 1.6 | 3.2 | 0.00 | 0.00 | 0.00 | 49 | 1013.3 |
| 20260906162826 | 33 | 89 | 1.6 | 3.2 | 0.00 | 0.00 | 0.00 | 52 | 1013.5 |
| 20260906162325 | 33 | 184 | 4.8 | 8.0 | 0.00 | 0.00 | 0.00 | 52 | 1013.5 |
| 20260906161821 | 33 | 90 | 1.6 | 3.2 | 0.00 | 0.00 | 0.00 | 51 | 1013.3 |
| 20260906161320 | 33 | 195 | 6.4 | 8.0 | 0.00 | 0.00 | 0.00 | 51 | 1013.5 |
| 20260906160819 | 33 | 86 | 1.6 | 1.6 | 0.00 | 0.00 | 0.00 | 53 | 1013.5 |
| 20260906160313 | 33 | 109 | 0.0 | 1.6 | 0.00 | 0.00 | 0.00 | 53 | 1013.3 |
| 20260906155811 | 33 | 98 | 3.2 | 3.2 | 0.00 | 0.00 | 0.00 | 54 | 1013.3 |
| 20260906155307 | 33 | 104 | 3.2 | 3.2 | 0.00 | 0.00 | 0.00 | 54 | 1013.5 |
| 20260906154802 | 33 | 96 | 0.0 | 1.6 | 0.00 | 0.00 | 0.00 | 55 | 1013.6 |
| 20260906154256 | 32 | 70 | 3.2 | 3.2 | 0.00 | 0.00 | 0.00 | 58 | 1013.5 |
| 20260906153754 | 32 | 91 | 1.6 | 1.6 | 0.00 | 0.00 | 0.00 | 60 | 1013.7 |
| 20260906153249 | 32 | 314 | 1.6 | 1.6 | 0.00 | 0.00 | 0.00 | 58 | 1013.4 |
| 20260906152744 | 32 | 89 | 0.0 | 1.6 | 0.00 | 0.00 | 0.00 | 59 | 1013.3 |
| 20260906152245 | 32 | 77 | 1.6 | 1.6 | 0.00 | 0.00 | 0.00 | 58 | 1013.3 |
| 20260906151744 | 33 | 56 | 1.6 | 1.6 | 0.00 | 0.00 | 0.00 | 57 | 1013.3 |
| 20260906151240 | 32 | 93 | 0.0 | 1.6 | 0.00 | 0.00 | 0.00 | 58 | 1013.2 |
| 20260906150735 | 31 | 93 | 0.0 | 0.0 | 0.00 | 0.00 | 0.00 | 61 | 1013.0 |
| 20260906150231 | 31 | 3 | 3.2 | 3.2 | 0.00 | 0.00 | 0.00 | 62 | 1013.1 |
| 20260906145729 | 31 | 79 | 3.2 | 3.2 | 0.00 | 0.00 | 0.00 | 63 | 1013.1 |
| 20260906145228 | 31 | 81 | 3.2 | 3.2 | 0.00 | 0.00 | 0.00 | 63 | 1013.1 |
| 20260906144724 | 31 | 123 | 3.2 | 3.2 | 0.00 | 0.00 | 0.00 | 63 | 1013.2 |
| 20260906144219 | 30 | 86 | 0.0 | 1.6 | 0.00 | 0.00 | 0.00 | 64 | 1013.0 |
| 20260906143718 | 30 | 98 | 0.0 | 1.6 | 0.00 | 0.00 | 0.00 | 64 | 1013.0 |
| 20260906143216 | 30 | 103 | 1.6 | 3.2 | 0.00 | 0.00 | 0.00 | 65 | 1012.8 |
| 20260906142715 | 30 | 84 | 1.6 | 1.6 | 0.00 | 0.00 | 0.00 | 66 | 1012.9 |
| 20260906142210 | 30 | 111 | 1.6 | 1.6 | 0.00 | 0.00 | 0.00 | 67 | 1013.2 |
| 20260906141709 | 30 | 49 | 1.6 | 1.6 | 0.00 | 0.00 | 0.00 | 67 | 1013.3 |
| 20260906141204 | 30 | 69 | 1.6 | 1.6 | 0.00 | 0.00 | 0.00 | 67 | 1013.0 |
| 20260906140703 | 29 | 94 | 0.0 | 1.6 | 0.00 | 0.00 | 0.00 | 68 | 1013.1 |
| 20260906140158 | 29 | 92 | 0.0 | 0.0 | 0.00 | 0.00 | 0.00 | 68 | 1013.1 |
| 20260906135655 | 29 | 94 | 0.0 | 0.0 | 0.00 | 0.00 | 0.00 | 69 | 1013.0 |
| 20260906135151 | 28 | 151 | 0.0 | 1.6 | 0.00 | 0.00 | 0.00 | 70 | 1012.8 |
| 20260906134647 | 28 | 95 | 0.0 | 0.0 | 0.00 | 0.00 | 0.00 | 71 | 1012.7 |
| 20260906134141 | 28 | 92 | 0.0 | 1.6 | 0.00 | 0.00 | 0.00 | 71 | 1012.7 |
| 20260906133637 | 28 | 104 | 1.6 | 1.6 | 0.00 | 0.00 | 0.00 | 72 | 1013.0 |
| 20260906133137 | 27 | 85 | 1.6 | 1.6 | 0.00 | 0.00 | 0.00 | 73 | 1012.8 |
| 20260906132633 | 27 | 93 | 0.0 | 1.6 | 0.00 | 0.00 | 0.00 | 73 | 1013.0 |
| 20260906132128 | 27 | 111 | 1.6 | 1.6 | 0.00 | 0.00 | 0.00 | 74 | 1013.1 |
| 20260906131624 | 27 | 90 | 1.6 | 1.6 | 0.00 | 0.00 | 0.00 | 75 | 1013.0 |
| 20260906131119 | 27 | 94 | 1.6 | 1.6 | 0.00 | 0.00 | 0.00 | 75 | 1012.8 |
| 20260906130614 | 27 | 92 | 0.0 | 0.0 | 0.00 | 0.00 | 0.00 | 76 | 1013.0 |
| 20260906130109 | 27 | 90 | 0.0 | 0.0 | 0.00 | 0.00 | 0.00 | 77 | 1013.1 |
| 20260906125607 | 26 | 90 | 0.0 | 1.6 | 0.00 | 0.00 | 0.00 | 78 | 1012.7 |
| 20260906125106 | 26 | 86 | 0.0 | 0.0 | 0.00 | 0.00 | 0.00 | 79 | 1012.8 |
| 20260906124602 | 26 | 88 | 0.0 | 0.0 | 0.00 | 0.00 | 0.00 | 79 | 1012.6 |
| 20260906124056 | 26 | 99 | 1.6 | 1.6 | 0.00 | 0.00 | 0.00 | 79 | 1012.8 |
| 20260906123555 | 25 | 92 | 1.6 | 1.6 | 0.00 | 0.00 | 0.00 | 80 | 1012.9 |
| 20260906123051 | 25 | 89 | 0.0 | 0.0 | 0.00 | 0.00 | 0.00 | 80 | 1012.7 |
| 20260906122550 | 25 | 97 | 0.0 | 1.6 | 0.00 | 0.00 | 0.00 | 80 | 1012.6 |
| 20260906122046 | 25 | 90 | 0.0 | 0.0 | 0.00 | 0.00 | 0.00 | 80 | 1012.6 |
| 20260906121542 | 25 | 89 | 0.0 | 0.0 | 0.00 | 0.00 | 0.00 | 80 | 1012.3 |
| 20260906121038 | 25 | 89 | 0.0 | 0.0 | 0.00 | 0.00 | 0.00 | 79 | 1012.3 |
| 20260906120533 | 25 | 90 | 0.0 | 0.0 | 0.00 | 0.00 | 0.00 | 79 | 1012.4 |
| 20260906120031 | 25 | 89 | 0.0 | 0.0 | 0.00 | 0.00 | 0.00 | 79 | 1012.3 |
| 20260906115530 | 25 | 89 | 0.0 | 0.0 | 0.00 | 0.00 | 0.00 | 79 | 1012.4 |
| 20260906115025 | 25 | 89 | 0.0 | 0.0 | 0.00 | 0.00 | 0.00 | 79 | 1012.2 |
| 20260906114520 | 25 | 90 | 0.0 | 0.0 | 0.00 | 0.00 | 0.00 | 79 | 1012.1 |
| 20260906114016 | 25 | 89 | 0.0 | 0.0 | 0.00 | 0.00 | 0.00 | 79 | 1012.3 |
| 20260906113514 | 25 | 85 | 0.0 | 0.0 | 0.00 | 0.00 | 0.00 | 79 | 1012.1 |
| 20260906113010 | 25 | 98 | 0.0 | 1.6 | 0.00 | 0.00 | 0.00 | 79 | 1012.2 |
| 20260906112505 | 25 | 89 | 0.0 | 0.0 | 0.00 | 0.00 | 0.00 | 79 | 1012.0 |
| 20260906112001 | 25 | 89 | 0.0 | 0.0 | 0.00 | 0.00 | 0.00 | 79 | 1011.9 |
| 20260906111500 | 26 | 89 | 0.0 | 0.0 | 0.00 | 0.00 | 0.00 | 79 | 1011.6 |
| 20260906110955 | 26 | 89 | 0.0 | 0.0 | 0.00 | 0.00 | 0.00 | 78 | 1011.9 |
| 20260906110450 | 26 | 89 | 0.0 | 0.0 | 0.00 | 0.00 | 0.00 | 78 | 1011.9 |
| 20260906105949 | 26 | 90 | 0.0 | 0.0 | 0.00 | 0.00 | 0.00 | 77 | 1011.8 |
| 20260906105445 | 26 | 92 | 0.0 | 0.0 | 0.00 | 0.00 | 0.00 | 77 | 1012.1 |
| 20260906104941 | 26 | 92 | 1.6 | 1.6 | 0.00 | 0.00 | 0.00 | 77 | 1011.6 |
| 20260906104440 | 26 | 89 | 0.0 | 0.0 | 0.00 | 0.00 | 0.00 | 76 | 1011.7 |
| 20260906103939 | 26 | 89 | 0.0 | 0.0 | 0.00 | 0.00 | 0.00 | 75 | 1011.7 |
| 20260906103437 | 26 | 83 | 1.6 | 1.6 | 0.00 | 0.00 | 0.00 | 75 | 1011.7 |
| 20260906102932 | 26 | 88 | 1.6 | 1.6 | 0.00 | 0.00 | 0.00 | 75 | 1011.6 |
| 20260906102432 | 26 | 74 | 0.0 | 1.6 | 0.00 | 0.00 | 0.00 | 76 | 1011.8 |
| 20260906101927 | 26 | 85 | 0.0 | 0.0 | 0.00 | 0.00 | 0.00 | 76 | 1011.8 |
| 20260906101422 | 26 | 88 | 0.0 | 0.0 | 0.00 | 0.00 | 0.00 | 75 | 1011.4 |
| 20260906100918 | 26 | 88 | 0.0 | 0.0 | 0.00 | 0.00 | 0.00 | 75 | 1011.6 |
| 20260906100417 | 26 | 85 | 1.6 | 3.2 | 0.00 | 0.00 | 0.00 | 75 | 1011.4 |
| 20260906095912 | 26 | 87 | 0.0 | 0.0 | 0.00 | 0.00 | 0.00 | 75 | 1011.4 |
| 20260906095408 | 26 | 89 | 0.0 | 0.0 | 0.00 | 0.00 | 0.00 | 75 | 1011.4 |
| 20260906094908 | 27 | 90 | 0.0 | 0.0 | 0.00 | 0.00 | 0.00 | 74 | 1011.3 |
| 20260906094403 | 27 | 87 | 0.0 | 0.0 | 0.00 | 0.00 | 0.00 | 74 | 1011.4 |
| 20260906093859 | 27 | 81 | 1.6 | 1.6 | 0.00 | 0.00 | 0.00 | 74 | 1011.4 |
| 20260906093355 | 27 | 85 | 1.6 | 1.6 | 0.00 | 0.00 | 0.00 | 73 | 1011.4 |
| 20260906092855 | 27 | 93 | 1.6 | 1.6 | 0.00 | 0.00 | 0.00 | 73 | 1010.7 |
| 20260906092355 | 27 | 97 | 1.6 | 1.6 | 0.00 | 0.00 | 0.00 | 73 | 1011.2 |
| 20260906091850 | 27 | 72 | 1.6 | 1.6 | 0.00 | 0.00 | 0.00 | 73 | 1011.2 |
| 20260906091346 | 27 | 91 | 1.6 | 1.6 | 0.00 | 0.00 | 0.00 | 73 | 1011.1 |
| 20260906090843 | 27 | 64 | 1.6 | 1.6 | 0.00 | 0.00 | 0.00 | 72 | 1011.3 |
| 20260906090342 | 27 | 95 | 3.2 | 3.2 | 0.00 | 0.00 | 0.00 | 72 | 1011.1 |
| 20260906085837 | 27 | 106 | 3.2 | 4.8 | 0.00 | 0.00 | 0.00 | 72 | 1010.8 |
| 20260906085335 | 27 | 130 | 4.8 | 4.8 | 0.00 | 0.00 | 0.00 | 72 | 1010.9 |
| 20260906084830 | 27 | 288 | 4.8 | 4.8 | 0.00 | 0.00 | 0.00 | 72 | 1011.0 |
| 20260906084330 | 27 | 67 | 4.8 | 4.8 | 0.00 | 0.00 | 0.00 | 72 | 1010.9 |
| 20260906083825 | 27 | 112 | 1.6 | 1.6 | 0.00 | 0.00 | 0.00 | 72 | 1011.0 |
| 20260906083321 | 27 | 61 | 1.6 | 3.2 | 0.00 | 0.00 | 0.00 | 72 | 1010.8 |
| 20260906082820 | 27 | 83 | 1.6 | 3.2 | 0.00 | 0.00 | 0.00 | 72 | 1011.0 |
| 20260906082315 | 27 | 57 | 1.6 | 3.2 | 0.00 | 0.00 | 0.00 | 73 | 1010.9 |
| 20260906081811 | 27 | 61 | 1.6 | 1.6 | 0.00 | 0.00 | 0.00 | 73 | 1011.0 |
| 20260906081307 | 27 | 99 | 0.0 | 1.6 | 0.00 | 0.00 | 0.00 | 72 | 1010.7 |
| 20260906080803 | 27 | 81 | 0.0 | 0.0 | 0.00 | 0.00 | 0.00 | 72 | 1011.0 |
| 20260906080259 | 27 | 93 | 3.2 | 4.8 | 0.00 | 0.00 | 0.00 | 71 | 1011.0 |
| 20260906075758 | 28 | 77 | 1.6 | 3.2 | 0.00 | 0.00 | 0.00 | 71 | 1011.2 |
| 20260906075253 | 28 | 94 | 1.6 | 1.6 | 0.00 | 0.00 | 0.00 | 70 | 1011.1 |
| 20260906074748 | 28 | 318 | 3.2 | 3.2 | 0.00 | 0.00 | 0.00 | 70 | 1011.3 |
| 20260906074248 | 28 | 55 | 3.2 | 3.2 | 0.00 | 0.00 | 0.00 | 70 | 1011.6 |
| 20260906073747 | 28 | 56 | 4.8 | 4.8 | 0.00 | 0.00 | 0.00 | 70 | 1011.6 |
| 20260906073242 | 28 | 25 | 1.6 | 4.8 | 0.00 | 0.00 | 0.00 | 70 | 1011.4 |
| 20260906072738 | 28 | 81 | 4.8 | 4.8 | 0.00 | 0.00 | 0.00 | 69 | 1011.3 |
| 20260906072233 | 28 | 88 | 1.6 | 3.2 | 0.00 | 0.00 | 0.00 | 69 | 1011.3 |
| 20260906071729 | 28 | 75 | 1.6 | 1.6 | 0.00 | 0.00 | 0.00 | 69 | 1011.2 |
| 20260906071229 | 28 | 85 | 1.6 | 3.2 | 0.00 | 0.00 | 0.00 | 69 | 1011.3 |
| 20260906070726 | 28 | 83 | 1.6 | 1.6 | 0.00 | 0.00 | 0.00 | 69 | 1011.2 |
| 20260906070221 | 28 | 86 | 1.6 | 1.6 | 0.00 | 0.00 | 0.00 | 69 | 1011.3 |
| 20260906065721 | 28 | 74 | 1.6 | 1.6 | 0.00 | 0.00 | 0.00 | 69 | 1011.3 |
| 20260906065216 | 28 | 78 | 1.6 | 1.6 | 0.00 | 0.00 | 0.00 | 69 | 1011.7 |
| 20260906064712 | 28 | 81 | 3.2 | 3.2 | 0.00 | 0.00 | 0.00 | 69 | 1011.6 |
| 20260906064207 | 28 | 78 | 1.6 | 1.6 | 0.00 | 0.00 | 0.00 | 68 | 1011.7 |
| 20260906063702 | 28 | 81 | 1.6 | 1.6 | 0.00 | 0.00 | 0.00 | 68 | 1011.9 |
| 20260906063158 | 28 | 305 | 3.2 | 3.2 | 0.00 | 0.00 | 0.00 | 68 | 1011.4 |
| 20260906062653 | 28 | 353 | 1.6 | 1.6 | 0.00 | 0.00 | 0.00 | 68 | 1011.3 |
| 20260906062152 | 28 | 16 | 3.2 | 3.2 | 0.00 | 0.00 | 0.00 | 68 | 1011.6 |
| 20260906061648 | 29 | 84 | 3.2 | 3.2 | 0.00 | 0.00 | 0.00 | 68 | 1011.4 |
| 20260906061149 | 29 | 90 | 3.2 | 3.2 | 0.00 | 0.00 | 0.00 | 68 | 1011.7 |
| 20260906060645 | 29 | 66 | 3.2 | 3.2 | 0.00 | 0.00 | 0.00 | 68 | 1011.9 |
| 20260906060142 | 29 | 65 | 1.6 | 1.6 | 0.00 | 0.00 | 0.00 | 67 | 1011.7 |
| 20260906055637 | 29 | 69 | 1.6 | 3.2 | 0.00 | 0.00 | 0.00 | 67 | 1011.7 |
| 20260906055132 | 29 | 88 | 1.6 | 3.2 | 0.00 | 0.00 | 0.00 | 67 | 1011.6 |
| 20260906054627 | 29 | 76 | 1.6 | 3.2 | 0.00 | 0.00 | 0.00 | 68 | 1011.7 |
| 20260906054123 | 29 | 15 | 3.2 | 3.2 | 0.00 | 0.00 | 0.00 | 68 | 1011.7 |
| 20260906053620 | 29 | 76 | 1.6 | 1.6 | 0.00 | 0.00 | 0.00 | 67 | 1011.6 |
| 20260906053120 | 29 | 47 | 4.8 | 4.8 | 0.00 | 0.00 | 0.00 | 67 | 1011.6 |
| 20260906052615 | 29 | 73 | 1.6 | 1.6 | 0.00 | 0.00 | 0.00 | 67 | 1011.6 |
| 20260906052112 | 29 | 78 | 1.6 | 1.6 | 0.00 | 0.00 | 0.00 | 67 | 1011.8 |
| 20260906051608 | 29 | 58 | 1.6 | 3.2 | 0.00 | 0.00 | 0.00 | 67 | 1011.9 |
| 20260906051103 | 29 | 89 | 1.6 | 3.2 | 0.00 | 0.00 | 0.00 | 67 | 1011.9 |
| 20260906050558 | 29 | 91 | 3.2 | 3.2 | 0.00 | 0.00 | 0.00 | 67 | 1011.7 |
| 20260906050053 | 30 | 98 | 0.0 | 1.6 | 0.00 | 0.00 | 0.00 | 67 | 1011.6 |
| 20260906045551 | 30 | 88 | 0.0 | 1.6 | 0.00 | 0.00 | 0.00 | 67 | 1012.0 |
| 20260906045047 | 30 | 94 | 0.0 | 0.0 | 0.00 | 0.00 | 0.00 | 66 | 1011.6 |
| 20260906044542 | 30 | 88 | 1.6 | 1.6 | 0.00 | 0.00 | 0.00 | 65 | 1011.7 |
| 20260906044038 | 30 | 167 | 3.2 | 3.2 | 0.00 | 0.00 | 0.00 | 65 | 1011.3 |
| 20260906043533 | 30 | 71 | 3.2 | 4.8 | 0.00 | 0.00 | 0.00 | 65 | 1011.2 |
| 20260906043030 | 30 | 90 | 3.2 | 3.2 | 0.00 | 0.00 | 0.00 | 65 | 1011.4 |
| 20260906042528 | 30 | 56 | 3.2 | 3.2 | 0.00 | 0.00 | 0.00 | 65 | 1011.4 |
| 20260906042023 | 30 | 73 | 1.6 | 1.6 | 0.00 | 0.00 | 0.00 | 65 | 1011.4 |
| 20260906041519 | 30 | 24 | 3.2 | 4.8 | 0.00 | 0.00 | 0.00 | 65 | 1011.6 |
| 20260906041019 | 30 | 97 | 1.6 | 1.6 | 0.00 | 0.00 | 0.00 | 64 | 1011.6 |
| 20260906040514 | 30 | 76 | 3.2 | 3.2 | 0.00 | 0.00 | 0.00 | 64 | 1011.6 |
| 20260906040010 | 30 | 110 | 3.2 | 3.2 | 0.00 | 0.00 | 0.00 | 63 | 1011.6 |
| 20260906035505 | 30 | 36 | 4.8 | 4.8 | 0.00 | 0.00 | 0.00 | 63 | 1011.3 |
| 20260906035001 | 30 | 71 | 4.8 | 4.8 | 0.00 | 0.00 | 0.00 | 63 | 1011.3 |
| 20260906034500 | 30 | 86 | 1.6 | 1.6 | 0.00 | 0.00 | 0.00 | 62 | 1011.3 |
| 20260906033955 | 30 | 63 | 3.2 | 3.2 | 0.00 | 0.00 | 0.00 | 62 | 1011.4 |
| 20260906033450 | 30 | 80 | 1.6 | 1.6 | 0.00 | 0.00 | 0.00 | 62 | 1011.4 |
| 20260906032946 | 31 | 22 | 3.2 | 3.2 | 0.00 | 0.00 | 0.00 | 61 | 1011.4 |
| 20260906032443 | 31 | 86 | 1.6 | 3.2 | 0.00 | 0.00 | 0.00 | 61 | 1011.3 |
| 20260906031942 | 31 | 77 | 3.2 | 3.2 | 0.00 | 0.00 | 0.00 | 61 | 1011.6 |
| 20260906031438 | 31 | 89 | 1.6 | 1.6 | 0.00 | 0.00 | 0.00 | 60 | 1011.3 |
| 20260906030933 | 31 | 90 | 1.6 | 1.6 | 0.00 | 0.00 | 0.00 | 60 | 1011.4 |
| 20260906030427 | 31 | 89 | 1.6 | 1.6 | 0.00 | 0.00 | 0.00 | 59 | 1011.3 |
| 20260906025922 | 31 | 304 | 4.8 | 4.8 | 0.00 | 0.00 | 0.00 | 59 | 1011.6 |
| 20260906025416 | 31 | 277 | 1.6 | 3.2 | 0.00 | 0.00 | 0.00 | 59 | 1011.3 |
| 20260906024915 | 31 | 107 | 4.8 | 9.7 | 0.00 | 0.00 | 0.00 | 58 | 1011.2 |
| 20260906024414 | 31 | 108 | 1.6 | 3.2 | 0.00 | 0.00 | 0.00 | 58 | 1011.3 |
| 20260906023910 | 31 | 36 | 3.2 | 3.2 | 0.00 | 0.00 | 0.00 | 58 | 1011.1 |
| 20260906023407 | 31 | 76 | 3.2 | 3.2 | 0.00 | 0.00 | 0.00 | 57 | 1011.1 |
| 20260906022906 | 31 | 5 | 3.2 | 3.2 | 0.00 | 0.00 | 0.00 | 57 | 1010.8 |
| 20260906022401 | 32 | 81 | 1.6 | 1.6 | 0.00 | 0.00 | 0.00 | 56 | 1010.9 |
| 20260906021857 | 32 | 314 | 4.8 | 4.8 | 0.00 | 0.00 | 0.00 | 56 | 1010.8 |
| 20260906021356 | 32 | 78 | 3.2 | 3.2 | 0.00 | 0.00 | 0.00 | 55 | 1010.8 |
| 20260906020851 | 32 | 104 | 1.6 | 1.6 | 0.00 | 0.00 | 0.00 | 55 | 1010.8 |
| 20260906020350 | 32 | 82 | 3.2 | 4.8 | 0.00 | 0.00 | 0.00 | 54 | 1010.5 |
| 20260906015846 | 32 | 100 | 0.0 | 1.6 | 0.00 | 0.00 | 0.00 | 54 | 1010.5 |
| 20260906015345 | 32 | 159 | 1.6 | 3.2 | 0.00 | 0.00 | 0.00 | 53 | 1010.5 |
| 20260906014845 | 32 | 55 | 1.6 | 3.2 | 0.00 | 0.00 | 0.00 | 53 | 1010.3 |
| 20260906014344 | 33 | 251 | 6.4 | 12.9 | 0.00 | 0.00 | 0.00 | 51 | 1010.3 |
| 20260906013841 | 33 | 252 | 6.4 | 9.7 | 0.00 | 0.00 | 0.00 | 49 | 1010.1 |
| 20260906013336 | 34 | 72 | 3.2 | 3.2 | 0.00 | 0.00 | 0.00 | 43 | 1010.0 |
| 20260906012832 | 35 | 116 | 4.8 | 8.0 | 0.00 | 0.00 | 0.00 | 42 | 1010.1 |
| 20260906012327 | 35 | 212 | 8.0 | 11.3 | 0.00 | 0.00 | 0.00 | 42 | 1009.8 |
| 20260906011826 | 35 | 176 | 4.8 | 4.8 | 0.00 | 0.00 | 0.00 | 42 | 1009.7 |
| 20260906011321 | 35 | 100 | 3.2 | 4.8 | 0.00 | 0.00 | 0.00 | 42 | 1009.7 |
| 20260906010817 | 35 | 117 | 4.8 | 4.8 | 0.00 | 0.00 | 0.00 | 42 | 1009.4 |
| 20260906010313 | 35 | 145 | 3.2 | 4.8 | 0.00 | 0.00 | 0.00 | 42 | 1009.5 |
| 20260906005808 | 35 | 190 | 1.6 | 3.2 | 0.00 | 0.00 | 0.00 | 41 | 1009.4 |
| 20260906005307 | 35 | 88 | 1.6 | 1.6 | 0.00 | 0.00 | 0.00 | 41 | 1009.6 |
| 20260906004807 | 35 | 32 | 0.0 | 1.6 | 0.00 | 0.00 | 0.00 | 41 | 1009.5 |
| 20260906004307 | 35 | 76 | 4.8 | 4.8 | 0.00 | 0.00 | 0.00 | 40 | 1009.5 |
| 20260906003802 | 35 | 83 | 1.6 | 3.2 | 0.00 | 0.00 | 0.00 | 40 | 1009.5 |
| 20260906003257 | 35 | 91 | 3.2 | 3.2 | 0.00 | 0.00 | 0.00 | 40 | 1009.6 |
| 20260906002753 | 35 | 83 | 1.6 | 3.2 | 0.00 | 0.00 | 0.00 | 40 | 1009.5 |
| 20260906002252 | 35 | 170 | 1.6 | 3.2 | 0.00 | 0.00 | 0.00 | 39 | 1009.4 |
| 20260906001748 | 35 | 166 | 0.0 | 1.6 | 0.00 | 0.00 | 0.00 | 39 | 1009.5 |
| 20260906001248 | 35 | 86 | 1.6 | 1.6 | 0.00 | 0.00 | 0.00 | 40 | 1009.5 |
| 20260906000744 | 35 | 102 | 0.0 | 1.6 | 0.00 | 0.00 | 0.00 | 39 | 1009.5 |
| 20260906000244 | 35 | 160 | 4.8 | 8.0 | 0.00 | 0.00 | 0.00 | 39 | 1009.1 |
| 20260905235738 | 35 | 89 | 0.0 | 1.6 | 0.00 | 0.00 | 0.00 | 40 | 1009.3 |
| 20260905235238 | 36 | 298 | 1.6 | 3.2 | 0.00 | 0.00 | 0.00 | 40 | 1009.2 |
| 20260905234734 | 36 | 84 | 3.2 | 3.2 | 0.00 | 0.00 | 0.00 | 39 | 1009.4 |
| 20260905234229 | 36 | 74 | 0.0 | 1.6 | 0.00 | 0.00 | 0.00 | 39 | 1009.3 |
| 20260905233724 | 36 | 87 | 3.2 | 3.2 | 0.00 | 0.00 | 0.00 | 39 | 1009.3 |
| 20260905233223 | 36 | 145 | 3.2 | 3.2 | 0.00 | 0.00 | 0.00 | 39 | 1009.1 |
| 20260905232719 | 36 | 81 | 1.6 | 3.2 | 0.00 | 0.00 | 0.00 | 39 | 1009.3 |
| 20260905232214 | 36 | 324 | 3.2 | 3.2 | 0.00 | 0.00 | 0.00 | 39 | 1009.4 |
| 20260905231710 | 36 | 85 | 0.0 | 0.0 | 0.00 | 0.00 | 0.00 | 39 | 1009.4 |
| 20260905231205 | 36 | 89 | 1.6 | 3.2 | 0.00 | 0.00 | 0.00 | 39 | 1009.3 |
| 20260905230701 | 36 | 51 | 1.6 | 1.6 | 0.00 | 0.00 | 0.00 | 38 | 1009.1 |